{"data":{"norad_id":65980,"epoch":"2026-05-24T22:37:59.918304Z","epoch_age_seconds":79846,"freshness":"FRESH","line1":"1 65980U 25230G   26144.94305461  .00000037  00000+0  24062-4 0  9996","line2":"2 65980  81.2998 233.5242 0001055 122.7450 237.3806 13.80998910 30572","mean_motion":13.8099891,"eccentricity":0.0001055,"inclination_deg":81.2998,"raan_deg":233.5242,"arg_perigee_deg":122.745,"mean_anomaly_deg":237.3806,"bstar":2.4062e-5,"rev_number":3057,"period_min":104.27234877398,"perigee_km":959.5716485065,"apogee_km":961.12006838963,"semimajor_km":7338.4828584481,"source":"CELESTRAK","updated_at":"2026-05-25T13:38:05.877845Z"}}